KB3MVG-13 Weather Reports


Display with metric or nautical units.
time (UTC)temp
F
wind
direction
speed
MPH
gust
MPH
rain 1hr
in
rain 24hr
in
rain mn
in
humidity
%
barometer
mb
20260906222516 88 0 5.0 12.0 0.00 0.00 0.00 25 1020.8
20260906221516 89 0 2.0 8.0 0.00 0.00 0.00 25 1021.0
20260906220516 89 0 3.0 8.0 0.00 0.00 0.00 25 1021.2
20260906215516 88 0 5.0 10.0 0.00 0.00 0.00 25 1021.3
20260906214516 88 0 6.0 14.0 0.00 0.00 0.00 26 1021.4
20260906213516 88 0 8.0 15.0 0.00 0.00 0.00 26 1021.9
20260906212536 88 0 3.0 10.0 0.00 0.00 0.00 25 1022.1
20260906211516 88 0 4.0 10.0 0.00 0.00 0.00 26 1022.3
20260906210516 87 0 6.0 14.0 0.00 0.00 0.00 27 1022.1
20260906205536 87 0 6.0 13.0 0.00 0.00 0.00 26 1022.3
20260906204516 87 0 4.0 10.0 0.00 0.00 0.00 26 1022.8
20260906203516 87 0 5.0 16.0 0.00 0.00 0.00 26 1022.5
20260906202516 87 0 3.0 9.0 0.00 0.00 0.00 27 1022.6
20260906201516 86 0 3.0 10.0 0.00 0.00 0.00 27 1022.6
20260906200536 86 0 5.0 10.0 0.00 0.00 0.00 27 1022.8
20260906195536 85 0 2.0 5.0 0.00 0.00 0.00 28 1022.9
20260906194516 84 0 3.0 11.0 0.00 0.00 0.00 29 1022.6
20260906193516 84 0 7.0 12.0 0.00 0.00 0.00 28 1022.9
20260906192516 85 0 4.0 11.0 0.00 0.00 0.00 27 1023.3
20260906191516 84 0 5.0 10.0 0.00 0.00 0.00 27 1023.4
20260906190516 84 0 5.0 10.0 0.00 0.00 0.00 29 1023.6
20260906185536 83 0 7.0 12.0 0.00 0.00 0.00 27 1023.3
20260906184516 83 0 4.0 9.0 0.00 0.00 0.00 30 1023.6
20260906183536 83 0 3.0 8.0 0.00 0.00 0.00 31 1024.2
20260906182516 81 0 5.0 12.0 0.00 0.00 0.00 34 1023.6
20260906181536 81 0 4.0 11.0 0.00 0.00 0.00 36 1023.8
20260906180516 80 0 4.0 10.0 0.00 0.00 0.00 38 1023.9
20260906175516 80 0 1.0 9.0 0.00 0.00 0.00 39 1024.2
20260906174536 80 0 4.0 8.0 0.00 0.00 0.00 38 1024.4
20260906173516 79 0 4.0 10.0 0.00 0.00 0.00 40 1024.6
20260906172516 79 0 2.0 7.0 0.00 0.00 0.00 41 1024.8
20260906171536 78 0 2.0 5.0 0.00 0.00 0.00 41 1025.1
20260906170516 78 0 1.0 5.0 0.00 0.00 0.00 42 1025.2
20260906165516 77 0 2.0 5.0 0.00 0.00 0.00 43 1025.4
20260906164516 77 0 1.0 6.0 0.00 0.00 0.00 43 1025.8
20260906163516 76 0 2.0 5.0 0.00 0.00 0.00 44 1025.5
20260906162516 75 0 2.0 6.0 0.00 0.00 0.00 46 1025.4
20260906161516 75 0 4.0 6.0 0.00 0.00 0.00 45 1025.3
20260906160536 74 0 2.0 8.0 0.00 0.00 0.00 46 1025.3
20260906155516 74 0 3.0 8.0 0.00 0.00 0.00 45 1025.3
20260906154516 74 0 2.0 4.0 0.00 0.00 0.00 43 1025.3
20260906153516 74 0 2.0 5.0 0.00 0.00 0.00 41 1025.0
20260906152516 73 0 0.0 0.0 0.00 0.00 0.00 40 1025.1
20260906151516 72 0 0.0 0.0 0.00 0.00 0.00 42 1024.6
20260906150536 71 0 0.0 0.0 0.00 0.00 0.00 44 1024.6
20260906145516 69 0 0.0 0.0 0.00 0.00 0.00 46 1024.3
20260906144516 69 0 0.0 0.0 0.00 0.00 0.00 47 1024.3
20260906143556 69 0 1.0 4.0 0.00 0.00 0.00 48 1024.4
20260906142516 68 0.0 3.0 0.00 0.00 0.00 52 1024.5
20260906141516 67 199 0.0 0.0 0.00 0.00 0.00 55 1024.5
20260906140516 66 0.0 2.0 0.00 0.00 0.00 57 1024.5
20260906135516 66 0.0 2.0 0.00 0.00 0.00 54 1024.4
20260906134516 65 0.0 1.0 0.00 0.00 0.00 57 1024.5
20260906133516 64 203 1.0 3.0 0.00 0.00 0.00 59 1024.0
20260906132536 64 268 0.0 0.0 0.00 0.00 0.00 62 1023.8
20260906131516 63 268 0.0 0.0 0.00 0.00 0.00 62 1023.6
20260906130516 63 268 0.0 0.0 0.00 0.00 0.00 61 1023.6
20260906125516 63 268 0.0 0.0 0.00 0.00 0.00 60 1023.8
20260906124516 64 268 0.0 0.0 0.00 0.00 0.00 54 1023.9
20260906123516 63 270 2.0 3.0 0.00 0.00 0.00 60 1024.0
20260906122516 63 0.0 3.0 0.00 0.00 0.00 59 1024.0
20260906121516 64 270 2.0 4.0 0.00 0.00 0.00 56 1024.5
20260906120516 64 274 0.0 0.0 0.00 0.00 0.00 57 1024.5
20260906115516 64 293 2.0 3.0 0.00 0.00 0.00 61 1024.9
20260906114516 65 338 1.0 3.0 0.00 0.00 0.00 64 1025.1
20260906113516 65 0 2.0 6.0 0.00 0.00 0.00 64 1025.1
20260906112515 66 0 1.0 5.0 0.00 0.00 0.00 60 1025.4
20260906111516 66 0 0.0 0.0 0.00 0.00 0.00 50 1024.8
20260906110516 66 0 1.0 4.0 0.00 0.00 0.00 49 1024.7
20260906105515 67 0 3.0 6.0 0.00 0.00 0.00 49 1024.5
20260906104515 67 270 1.0 4.0 0.00 0.00 0.00 46 1024.4
20260906103536 68 277 0.0 0.0 0.00 0.00 0.00 45 1024.5
20260906102516 68 270 3.0 6.0 0.00 0.00 0.00 45 1024.6
20260906101515 68 270 2.0 4.0 0.00 0.00 0.00 44 1024.6
20260906100536 68 315 2.0 3.0 0.00 0.00 0.00 44 1024.2
20260906095516 69 0.0 3.0 0.00 0.00 0.00 43 1024.8
20260906094515 69 0 3.0 7.0 0.00 0.00 0.00 43 1024.8
20260906093516 70 0 4.0 10.0 0.00 0.00 0.00 42 1024.5
20260906092515 70 0 6.0 10.0 0.00 0.00 0.00 41 1024.3
20260906091515 70 0 5.0 11.0 0.00 0.00 0.00 42 1024.7
20260906090515 70 0 6.0 11.0 0.00 0.00 0.00 41 1024.1
20260906085515 70 0 6.0 12.0 0.00 0.00 0.00 41 1024.1
20260906084536 71 0 7.0 11.0 0.00 0.00 0.00 42 1024.4
20260906083516 71 0 7.0 11.0 0.00 0.00 0.00 41 1024.7
20260906082516 71 293 6.0 11.0 0.00 0.00 0.00 40 1024.4
20260906081516 71 0 7.0 13.0 0.00 0.00 0.00 42 1024.8
20260906080516 71 0 9.0 15.0 0.00 0.00 0.00 42 1024.4
20260906075515 72 0 11.0 16.0 0.00 0.00 0.00 41 1024.3
20260906074516 72 0 13.0 19.0 0.00 0.00 0.00 41 1024.2
20260906073515 71 0 13.0 17.0 0.00 0.00 0.00 42 1024.2
20260906072516 72 0 13.0 18.0 0.00 0.00 0.00 42 1024.3
20260906071515 72 0 13.0 18.0 0.00 0.00 0.00 41 1024.3
20260906070515 73 0 14.0 21.0 0.00 0.00 0.00 39 1024.6
20260906065515 72 0 11.0 18.0 0.00 0.00 0.00 41 1024.3
20260906064516 72 0 12.0 19.0 0.00 0.00 0.00 42 1024.3
20260906063516 73 0 13.0 18.0 0.00 0.00 0.00 40 1024.4
20260906062516 73 0 11.0 17.0 0.00 0.00 0.00 41 1024.6
20260906061516 72 0 10.0 17.0 0.00 0.00 0.00 41 1024.6
20260906060515 72 0 10.0 16.0 0.00 0.00 0.00 42 1024.4
20260906055517 72 0 10.0 17.0 0.00 0.00 0.00 43 1024.5
20260906054516 73 0 8.0 16.0 0.00 0.00 0.00 41 1024.6
20260906053517 73 0 11.0 15.0 0.00 0.00 0.00 40 1024.7
20260906052515 74 0 8.0 13.0 0.00 0.00 0.00 40 1024.7
20260906051537 74 0 11.0 17.0 0.00 0.00 0.00 38 1024.7
20260906050517 75 0 9.0 14.0 0.00 0.00 0.00 36 1025.5
20260906045517 76 0 8.0 13.0 0.00 0.00 0.00 35 1025.6
20260906044516 77 0 8.0 13.0 0.00 0.00 0.00 30 1025.4
20260906043516 77 248 8.0 18.0 0.00 0.00 0.00 29 1025.4
20260906042536 78 180 3.0 15.0 0.00 0.00 0.00 28 1025.5
20260906041517 78 0 4.0 12.0 0.00 0.00 0.00 27 1024.9
20260906040517 78 0 2.0 8.0 0.00 0.00 0.00 27 1024.0
20260906035516 78 0.0 2.0 0.00 0.00 0.00 26 1024.2
20260906034517 79 0 5.0 9.0 0.00 0.00 0.00 26 1024.3
20260906033517 79 0 8.0 13.0 0.00 0.00 0.00 25 1024.1
20260906032517 79 0 7.0 11.0 0.00 0.00 0.00 25 1023.6
20260906031516 79 0 9.0 12.0 0.00 0.00 0.00 24 1023.6
20260906030516 80 0 6.0 9.0 0.00 0.00 0.00 24 1023.5
20260906025517 80 0 6.0 10.0 0.00 0.00 0.00 24 1023.3
20260906024517 80 0 5.0 9.0 0.00 0.00 0.00 23 1022.8
20260906023516 80 0 6.0 10.0 0.00 0.00 0.00 23 1022.1
20260906022516 81 0 5.0 8.0 0.00 0.00 0.00 22 1021.9
20260906021517 81 0 4.0 9.0 0.00 0.00 0.00 22 1022.3
20260906020516 82 0 5.0 9.0 0.00 0.00 0.00 21 1022.1
20260906015517 82 0 8.0 12.0 0.00 0.00 0.00 21 1021.6
20260906014516 83 0 7.0 12.0 0.00 0.00 0.00 21 1021.6
20260906013517 83 0 9.0 15.0 0.00 0.00 0.00 20 1021.0
20260906012537 83 0 7.0 11.0 0.00 0.00 0.00 20 1021.0
20260906011517 84 0 6.0 11.0 0.00 0.00 0.00 20 1021.0
20260906010517 85 0 5.0 10.0 0.00 0.00 0.00 19 1020.6
20260906005517 86 0 2.0 4.0 0.00 0.00 0.00 19 1020.7
20260906004517 86 0 2.0 5.0 0.00 0.00 0.00 18 1021.0
20260906003516 87 0 2.0 6.0 0.00 0.00 0.00 17 1021.7
20260906002517 88 0.0 3.0 0.00 0.00 0.00 17 1022.1
20260906001517 89 0 0.0 0.0 0.00 0.00 0.00 17 1022.1
20260906000516 89 0 2.0 5.0 0.00 0.00 0.00 16 1022.4
20260905235516 90 0 1.0 3.0 0.00 0.00 0.00 16 1022.7
20260905234516 90 0 2.0 6.0 0.00 0.00 0.00 16 1022.3
20260905233516 91 0 1.0 5.0 0.00 0.00 0.00 15 1022.2
20260905232556 91 0.0 5.0 0.00 0.00 0.00 16 1022.7
20260905231516 91 0 0.0 0.0 0.00 0.00 0.00 16 1022.7
20260905230517 91 0.0 2.0 0.00 0.00 0.00 16 1022.7
20260905225537 90 0 1.0 3.0 0.00 0.00 0.00 15 1022.6
20260905224516 90 0 1.0 4.0 0.00 0.00 0.00 16 1022.7
20260905223537 89 0 3.0 8.0 0.00 0.00 0.00 16 1022.3